• Em Portugal
  • Lista de países
  • Para 7 dias
  • Temperatura da água
  • Mapas de satélite
  • Mapa do tempo
  • Widgets de tempo
  • user-avatar
    Iniciar Sessão

    Previsão horária em Totonicapán

    Hoje, 24 Fevereiro, Sábado

    Tempo Temperatura Precipitação Vento Pressão Humidade
    00:00 +8°C° 0 mm 1 m/s 555 mmHg 78%
    01:00 +8°C° 0 mm 1 m/s 555 mmHg 79%
    02:00 +7°C° 0 mm 1 m/s 554 mmHg 80%
    03:00 +7°C° 0 mm 1 m/s 554 mmHg 81%
    04:00 +7°C° 0 mm 1 m/s 554 mmHg 80%
    05:00 +7°C° 0 mm 1 m/s 554 mmHg 80%
    06:00 +7°C° 0 mm 1 m/s 554 mmHg 80%
    07:00 +9°C° 0 mm 1 m/s 556 mmHg 71%
    08:00 +12°C° 0 mm 1 m/s 557 mmHg 62%
    09:00 +15°C° 0 mm 1 m/s 559 mmHg 53%
    10:00 +16°C° 0 mm 1 m/s 560 mmHg 48%
    11:00 +19°C° 0 mm 1 m/s 560 mmHg 44%
    12:00 +19°C° 0 mm 2 m/s 561 mmHg 40%
    13:00 +18°C° 0,4 mm 2 m/s 560 mmHg 44%
    14:00 +18°C° 0,4 mm 2 m/s 559 mmHg 49%
    15:00 +17°C° 0,4 mm 2 m/s 558 mmHg 53%
    16:00 +15°C° 0,7 mm 1 m/s 557 mmHg 60%
    17:00 +13°C° 0,7 mm 1 m/s 556 mmHg 66%
    18:00 +12°C° 0,7 mm 1 m/s 556 mmHg 73%
    19:00 +11°C° 0,3 mm 1 m/s 555 mmHg 75%
    20:00 +10°C° 0,3 mm 1 m/s 555 mmHg 77%
    21:00 +8°C° 0,3 mm 1 m/s 555 mmHg 79%
    22:00 +8°C° 0 mm 1 m/s 555 mmHg 77%
    23:00 +8°C° 0 mm 1 m/s 555 mmHg 76%

    Amanhã, 25 Fevereiro, Domingo

    Tempo Temperatura Precipitação Vento Pressão Humidade
    00:00 +7°C° 0 mm 1 m/s 554 mmHg 74%
    01:00 +7°C° 0 mm 1 m/s 554 mmHg 73%
    02:00 +7°C° 0 mm 1 m/s 554 mmHg 71%
    03:00 +7°C° 0 mm 1 m/s 553 mmHg 70%
    04:00 +7°C° 0 mm 1 m/s 553 mmHg 70%
    05:00 +6°C° 0 mm 1 m/s 553 mmHg 70%
    06:00 +6°C° 0 mm 1 m/s 553 mmHg 71%
    07:00 +9°C° 0 mm 1 m/s 555 mmHg 64%
    08:00 +12°C° 0 mm 1 m/s 557 mmHg 57%
    09:00 +14°C° 0 mm 0 m/s 559 mmHg 50%
    10:00 +18°C° 0 mm 1 m/s 560 mmHg 46%
    11:00 +19°C° 0 mm 1 m/s 560 mmHg 42%
    12:00 +21°C° 0 mm 1 m/s 561 mmHg 38%
    13:00 +20°C° 0,4 mm 1 m/s 560 mmHg 41%
    14:00 +18°C° 0,4 mm 2 m/s 559 mmHg 44%
    15:00 +17°C° 0,4 mm 2 m/s 558 mmHg 47%
    16:00 +15°C° 0,5 mm 1 m/s 557 mmHg 54%
    17:00 +14°C° 0,5 mm 1 m/s 556 mmHg 62%
    18:00 +12°C° 0,5 mm 1 m/s 556 mmHg 70%
    19:00 +11°C° 0,1 mm 1 m/s 555 mmHg 73%
    20:00 +9°C° 0,1 mm 1 m/s 555 mmHg 76%
    21:00 +8°C° 0,1 mm 1 m/s 555 mmHg 79%
    22:00 +8°C° 0 mm 1 m/s 555 mmHg 78%
    23:00 +8°C° 0 mm 1 m/s 555 mmHg 77%

    Depois de amanhã, 26 Fevereiro, Segunda-feira

    Tempo Temperatura Precipitação Vento Pressão Humidade
    00:00 +7°C° 0 mm 1 m/s 555 mmHg 76%
    01:00 +7°C° 0 mm 1 m/s 554 mmHg 75%
    02:00 +7°C° 0 mm 1 m/s 554 mmHg 74%
    03:00 +6°C° 0 mm 1 m/s 553 mmHg 73%
    04:00 +6°C° 0 mm 1 m/s 554 mmHg 71%
    05:00 +6°C° 0 mm 1 m/s 554 mmHg 69%
    06:00 +6°C° 0 mm 1 m/s 554 mmHg 67%
    07:00 +9°C° 0 mm 1 m/s 556 mmHg 58%
    08:00 +12°C° 0 mm 1 m/s 558 mmHg 49%
    09:00 +15°C° 0 mm 1 m/s 560 mmHg 40%
    10:00 +16°C° 0 mm 1 m/s 560 mmHg 37%
    11:00 +17°C° 0 mm 2 m/s 560 mmHg 34%
    12:00 +19°C° 0 mm 2 m/s 561 mmHg 32%
    13:00 +18°C° 0 mm 2 m/s 560 mmHg 35%
    14:00 +18°C° 0 mm 3 m/s 559 mmHg 39%
    15:00 +17°C° 0 mm 3 m/s 558 mmHg 42%
    16:00 +16°C° 0,1 mm 2 m/s 558 mmHg 51%
    17:00 +14°C° 0,1 mm 2 m/s 557 mmHg 60%
    18:00 +12°C° 0,1 mm 2 m/s 556 mmHg 68%
    19:00 +10°C° 0 mm 2 m/s 556 mmHg 74%
    20:00 +9°C° 0 mm 1 m/s 556 mmHg 79%
    21:00 +8°C° 0 mm 1 m/s 556 mmHg 84%
    22:00 +8°C° 0 mm 1 m/s 555 mmHg 83%
    23:00 +8°C° 0 mm 1 m/s 555 mmHg 83%

    27 Fevereiro, Terça-feira

    Tempo Temperatura Precipitação Vento Pressão Humidade
    00:00 +8°C° 0 mm 1 m/s 555 mmHg 83%
    01:00 +7°C° 0 mm 1 m/s 555 mmHg 83%
    02:00 +7°C° 0 mm 1 m/s 554 mmHg 82%
    03:00 +7°C° 0 mm 1 m/s 554 mmHg 82%
    04:00 +6°C° 0 mm 1 m/s 554 mmHg 80%
    05:00 +6°C° 0 mm 1 m/s 554 mmHg 78%
    06:00 +6°C° 0 mm 1 m/s 554 mmHg 76%
    07:00 +9°C° 0 mm 1 m/s 556 mmHg 65%
    08:00 +12°C° 0 mm 1 m/s 558 mmHg 53%
    09:00 +14°C° 0 mm 1 m/s 559 mmHg 42%
    10:00 +16°C° 0 mm 2 m/s 560 mmHg 38%
    11:00 +17°C° 0 mm 2 m/s 560 mmHg 35%
    12:00 +19°C° 0 mm 3 m/s 561 mmHg 31%
    13:00 +18°C° 0 mm 3 m/s 560 mmHg 33%
    14:00 +18°C° 0 mm 3 m/s 559 mmHg 35%
    15:00 +18°C° 0 mm 3 m/s 558 mmHg 37%
    16:00 +16°C° 0,1 mm 3 m/s 557 mmHg 47%
    17:00 +14°C° 0,1 mm 2 m/s 557 mmHg 57%
    18:00 +12°C° 0,1 mm 2 m/s 556 mmHg 67%
    19:00 +11°C° 0 mm 1 m/s 555 mmHg 73%
    20:00 +9°C° 0 mm 1 m/s 555 mmHg 78%
    21:00 +8°C° 0 mm 1 m/s 555 mmHg 84%
    22:00 +8°C° 0 mm 1 m/s 555 mmHg 83%
    23:00 +8°C° 0 mm 1 m/s 555 mmHg 83%

    28 Fevereiro, Quarta-feira

    Tempo Temperatura Precipitação Vento Pressão Humidade
    00:00 +7°C° 0 mm 1 m/s 554 mmHg 82%
    01:00 +7°C° 0 mm 1 m/s 554 mmHg 82%
    02:00 +7°C° 0 mm 1 m/s 553 mmHg 82%
    03:00 +6°C° 0 mm 1 m/s 553 mmHg 82%
    04:00 +6°C° 0 mm 1 m/s 553 mmHg 81%
    05:00 +6°C° 0 mm 1 m/s 553 mmHg 80%
    06:00 +6°C° 0 mm 1 m/s 553 mmHg 79%
    07:00 +9°C° 0 mm 1 m/s 555 mmHg 67%
    08:00 +12°C° 0 mm 1 m/s 557 mmHg 56%
    09:00 +14°C° 0 mm 0 m/s 559 mmHg 44%
    10:00 +18°C° 0 mm 1 m/s 559 mmHg 40%
    11:00 +19°C° 0 mm 1 m/s 560 mmHg 36%
    12:00 +21°C° 0 mm 1 m/s 560 mmHg 31%
    13:00 +20°C° 0 mm 2 m/s 559 mmHg 33%
    14:00 +19°C° 0 mm 2 m/s 558 mmHg 36%
    15:00 +19°C° 0 mm 2 m/s 558 mmHg 38%
    16:00 +17°C° 0 mm 2 m/s 557 mmHg 47%
    17:00 +14°C° 0 mm 1 m/s 556 mmHg 57%
    18:00 +12°C° 0 mm 1 m/s 555 mmHg 66%
    19:00 +11°C° 0 mm 1 m/s 555 mmHg 70%
    20:00 +10°C° 0 mm 1 m/s 554 mmHg 74%
    21:00 +8°C° 0 mm 0 m/s 554 mmHg 78%
    22:00 +8°C° 0 mm 1 m/s 554 mmHg 76%
    23:00 +8°C° 0 mm 1 m/s 554 mmHg 75%

    1 Março, Quinta-feira

    Tempo Temperatura Precipitação Vento Pressão Humidade
    00:00 +8°C° 0 mm 1 m/s 553 mmHg 74%
    01:00 +7°C° 0 mm 1 m/s 553 mmHg 74%
    02:00 +7°C° 0 mm 1 m/s 553 mmHg 73%
    03:00 +7°C° 0 mm 1 m/s 552 mmHg 73%
    04:00 +7°C° 0 mm 1 m/s 553 mmHg 75%
    05:00 +7°C° 0 mm 1 m/s 553 mmHg 76%
    06:00 +7°C° 0 mm 1 m/s 553 mmHg 77%
    07:00 +10°C° 0 mm 1 m/s 555 mmHg 69%
    08:00 +13°C° 0 mm 1 m/s 557 mmHg 60%
    09:00 +16°C° 0 mm 1 m/s 558 mmHg 52%
    10:00 +18°C° 0 mm 1 m/s 559 mmHg 47%
    11:00 +20°C° 0 mm 1 m/s 560 mmHg 43%
    12:00 +21°C° 0 mm 1 m/s 560 mmHg 38%
    13:00 +21°C° 0 mm 1 m/s 559 mmHg 39%
    14:00 +19°C° 0 mm 2 m/s 558 mmHg 40%
    15:00 +19°C° 0 mm 2 m/s 558 mmHg 42%
    16:00 +17°C° 0,2 mm 2 m/s 557 mmHg 50%
    17:00 +15°C° 0,2 mm 1 m/s 556 mmHg 58%
    18:00 +13°C° 0,2 mm 1 m/s 555 mmHg 66%
    19:00 +12°C° 0,1 mm 1 m/s 555 mmHg 69%
    20:00 +11°C° 0,1 mm 1 m/s 555 mmHg 73%
    21:00 +9°C° 0,1 mm 1 m/s 555 mmHg 77%
    22:00 +9°C° 0 mm 1 m/s 555 mmHg 76%
    23:00 +9°C° 0 mm 1 m/s 555 mmHg 75%
    Mostrar mais